Weather observations for the past three days for
Norfolk, Naval Air Station
Imperial (Metric)
Date Time (edt) Wind (mph) Vis. (mi.) Weather Sky Cond. Temperature (ºF) Relative Humidity Wind Chill (°F) Heat Index (°F) Pressure Precipitation (in)
Air Dwpt 6 hour altimeter (in) sea level (mb) 1 hr 3 hr 6 hr
Max. Min.
31 10:59 W 8 10.00 A Few Clouds FEW250 84.9 72 65% 91 30.12 1019.8
31 09:59 W 7 10.00 A Few Clouds FEW250 82 72 72% 87 30.12 1019.8
31 08:59 W 6 10.00 Fair CLR 79 72 79% 82 30.11 1019.5
31 07:59 SW 3 9.00 Fair CLR 75.9 73 75.9 72 91% 76 30.11 1019.7
31 06:59 S 3 10.00 A Few Clouds FEW250 73 72 96% 30.11 1019.6
31 05:59 Calm 10.00 A Few Clouds FEW250 73 72 96% 30.1 1019.3
31 02:59 SW 3 10.00 Partly Cloudy SCT250 75 72 90% 74 30.11 1019.6
31 00:59 Calm 10.00 Mostly Cloudy BKN250 75 72 90% 74 30.11 1019.6
30 23:59 SW 6 10.00 Mostly Cloudy BKN250 77 72 85% 78 30.12 1019.8
30 22:59 S 6 10.00 Mostly Cloudy BKN025 77 73 88% 78 30.13 1020.1
30 21:59 S 3 10.00 Mostly Cloudy BKN200 77 72 85% 78 30.14 1020.4
30 20:59 SE 7 10.00 Mostly Cloudy FEW030 BKN250 79 73 82% 82 30.13 1020.4
30 19:59 S 6 10.00 Mostly Cloudy FEW035 BKN110 BKN250 80.1 72 84.9 80.1 76% 84 30.13 1020.2
30 18:59 S 8 10.00 Mostly Cloudy FEW035 BKN100 BKN250 81 73 77% 86 30.13 1020.1
30 17:59 SE 9 10.00 Mostly Cloudy SCT035 BKN300 82.9 72 70% 88 30.12 1020.0
30 16:59 SE 9 10.00 Mostly Cloudy SCT040 BKN300 84 73 70% 90 30.12 1020.0
30 15:59 E 12 10.00 Mostly Cloudy SCT040 BKN300 84.9 73 68% 92 30.13 1020.3
30 14:59 NE 12 10.00 Mostly Cloudy SCT033 BKN300 84 73 70% 90 30.16 1021.1
30 13:59 NE 9 10.00 Mostly Cloudy SCT033 BKN300 84 73 84.9 77 70% 90 30.16 1021.4
30 12:59 NE 7 10.00 Mostly Cloudy SCT033 BKN300 82.9 73 72% 89 30.17 1021.8
30 11:59 E 9 10.00 Mostly Cloudy BKN030 BKN300 82.9 73 72% 89 30.18 1022.1
30 10:59 E 5 10.00 Mostly Cloudy SCT027 BKN300 82.9 73 72% 89 30.21 1023.0
30 09:59 E 5 10.00 Partly Cloudy SCT018 SCT300 81 73 77% 86 30.21 1022.8
30 07:59 E 5 10.00 Mostly Cloudy FEW031 FEW200 BKN300 75.9 73 75.9 71.1 91% 76 30.22 1023.4
30 06:59 E 3 9.00 Mostly Cloudy SCT032 BKN300 73.9 72 94% 30.23 1023.5
30 05:59 E 3 9.00 Partly Cloudy FEW032 SCT150 72 71.1 97% 30.21 1022.8
30 04:59 Calm 8.00 A Few Clouds FEW020 FEW150 71.1 71.1 100% 30.21 1022.8
30 03:59 Calm 9.00 Mostly Cloudy FEW020 BKN150 72 71.1 97% 30.2 1022.8
30 02:59 Calm 8.00 Partly Cloudy FEW020 SCT150 73 72 77 73 96% 30.21 1023.1
30 01:59 Calm 8.00 Partly Cloudy FEW020 SCT150 73 72 77 73 96% 30.21 1023.1
30 00:59 E 5 10.00 Mostly Cloudy SCT020 BKN150 75.9 72 88% 76 30.22 1023.3
29 23:59 SE 6 10.00 Mostly Cloudy SCT020 BKN150 75.9 72 88% 76 30.22 1023.3
29 22:59 SE 6 10.00 Mostly Cloudy SCT020 BKN150 75.9 72 88% 76 30.22 1023.3
29 21:59 E 7 10.00 Mostly Cloudy BKN015 BKN100 77 72 85% 78 30.21 1023.1
29 20:59 E 8 10.00 Mostly Cloudy BKN015 BKN100 77 72 85% 78 30.2 1022.5
29 19:59 E 8 10.00 Mostly Cloudy BKN015 BKN100 77 72 81 77 85% 78 30.17 1021.8
29 18:59 E 12 10.00 Mostly Cloudy BKN015 BKN100 77 72 85% 78 30.18 1021.8
29 17:59 E 12 10.00 Mostly Cloudy SCT015 BKN100 77 72 85% 78 30.18 1021.8
29 15:59 E 9 10.00 Overcast SCT019 SCT095 OVC250 80.1 72 76% 84 30.21 1022.9
29 14:59 NE 10 10.00 Overcast SCT019 SCT095 OVC300 80.1 72 76% 84 30.22 1023.3
29 13:59 NE 10 10.00 Overcast SCT020 OVC300 81 71.1 81 77 72% 85 30.22 1023.3
29 12:59 NE 13 10.00 Mostly Cloudy BKN020 BKN300 81 71.1 72% 85 30.22 1023.2
29 11:59 E 14 10.00 Mostly Cloudy BKN019 BKN300 79 71.1 77% 82 30.21 1023.0
29 10:59 E 14 10.00 Mostly Cloudy BKN019 BKN300 80.1 71.1 74% 84 30.21 1023.0
29 09:59 NE 12 10.00 Mostly Cloudy SCT018 BKN300 79 71.1 77% 82 30.19 1022.2
29 08:59 NE 12 10.00 Mostly Cloudy FEW015 BKN300 79 72 79% 82 30.17 1021.5
29 07:59 NE 12 10.00 Mostly Cloudy FEW015 FEW110 BKN300 77 71.1 77 75.9 82% 79 30.16 1021.4
29 06:59 NE 13 10.00 Mostly Cloudy FEW020 SCT110 BKN300 77 70 79% 79 30.15 1020.9
29 05:59 NE 10 10.00 Mostly Cloudy FEW080 SCT120 BKN250 77 71.1 82% 79 30.14 1020.5
29 04:59 NE 6 10.00 Mostly Cloudy FEW012 SCT120 BKN250 75.9 72 88% 76 30.12 1019.8
29 03:59 N 6 10.00 Mostly Cloudy FEW012 BKN150 BKN250 75.9 73.9 94% 75 30.1 1019.3
29 02:59 N 5 10.00 Mostly Cloudy FEW016 SCT170 BKN250 75.9 73 91% 76 30.09 1019.0
29 01:59 NW 8 10.00 Mostly Cloudy SCT016 BKN095 BKN250 75.9 71.1 75.9 72 85% 76 30.1 1019.1
29 00:59 Calm 10.00 Mostly Cloudy FEW110 SCT180 BKN250 73.9 72 94% 30.09 1019.0
28 23:59 Calm 10.00 Mostly Cloudy BKN130 BKN250 75 72 90% 74 30.07 1018.2
28 22:59 S 6 9.00 Mostly Cloudy FEW100 BKN150 BKN250 73 72 96% 30.06 1017.8
28 21:59 Vrbl 5 10.00 Mostly Cloudy SCT085 BKN140 BKN250 73.9 72 94% 30.07 1018.3
28 20:59 N 7 10.00 Mostly Cloudy SCT030 BKN080 BKN250 73.9 71.1 91% 30.04 1017.3
28 19:59 SE 5 10.00 Thunderstorm Light Rain SCT023CB BKN033 BKN110 73 69.1 88 73 87% 30.03 1017.0 0.77 0.77
28 18:59 SE 7 10.00 Thunderstorm SCT035CB BKN075 BKN095 81 73 77% 86 30 1015.7
28 17:59 E 6 10.00 Mostly Cloudy SCT045 BKN160 BKN300 84.9 73 68% 92 30 1015.8
28 15:59 Vrbl 5 10.00 Mostly Cloudy SCT041 SCT200 BKN300 88 71.1 57% 94 29.99 1015.4
28 14:59 Vrbl 3 10.00 Mostly Cloudy SCT033 SCT200 BKN300 88 70 55% 93 29.99 1015.6
28 13:59 Calm 10.00 Mostly Cloudy SCT025 SCT090 BKN230 86 71.1 86 78.1 61% 92 30 1015.8
28 12:59 S 6 10.00 Mostly Cloudy SCT025 SCT090 BKN230 84 71.1 65% 89 30.02 1016.5
28 11:59 W 10 10.00 Mostly Cloudy SCT025 SCT090 BKN160 82 72 72% 87 30.03 1016.8
Date Time (edt) Wind (mph) Vis. (mi.) Weather Sky Cond. Air Dwpt Max. Min. Relative Humidity Wind Chill (°F) Heat Index (°F) altimeter (in) sea level (mb) 1 hr 3 hr 6 hr
6 hour
Temperature (ºF) Pressure Precipitation (in)